| time (UTC) | temp C | wind direction | speed KPH | gust KPH | rain 1hr cm | rain 24hr cm | rain mn cm | humidity % | barometer mb |
| 20260507151047 | 12 | 5 | 6.4 | 9.7 | 0.00 | 0.00 | 0.00 | 70 | 1015.1 |
| 20260507150049 | 12 | 349 | 6.4 | 9.7 | 0.00 | 0.00 | 0.00 | 72 | 1015.0 |
| 20260507145050 | 12 | 2 | 6.4 | 11.3 | 0.00 | 0.00 | 0.00 | 72 | 1015.0 |
| 20260507144049 | 12 | 8 | 6.4 | 11.3 | 0.00 | 0.00 | 0.00 | 72 | 1015.1 |
| 20260507143049 | 12 | 357 | 6.4 | 9.7 | 0.00 | 0.00 | 0.00 | 73 | 1015.1 |
| 20260507142049 | 12 | 357 | 6.4 | 11.3 | 0.00 | 0.00 | 0.00 | 72 | 1015.1 |
| 20260507141049 | 12 | 344 | 6.4 | 9.7 | 0.00 | 0.00 | 0.00 | 71 | 1015.1 |
| 20260507140055 | 12 | 344 | 6.4 | 9.7 | 0.00 | 0.00 | 0.00 | 72 | 1015.2 |
| 20260507135049 | 12 | 337 | 4.8 | 8.0 | 0.00 | 0.00 | 0.00 | 74 | 1015.2 |
| 20260507133050 | 12 | 44 | 4.8 | 6.4 | 0.00 | 0.00 | 0.00 | 70 | 1015.2 |
| 20260507132050 | 12 | 77 | 6.4 | 11.3 | 0.00 | 0.00 | 0.00 | 67 | 1015.2 |
| 20260507131048 | 12 | 68 | 4.8 | 9.7 | 0.00 | 0.00 | 0.00 | 69 | 1015.1 |
| 20260507123052 | 12 | 69 | 4.8 | 9.7 | 0.00 | 0.00 | 0.00 | 72 | 1015.2 |
| 20260507122047 | 12 | 32 | 4.8 | 8.0 | 0.00 | 0.00 | 0.00 | 72 | 1015.2 |
| 20260507121051 | 12 | 67 | 6.4 | 9.7 | 0.00 | 0.00 | 0.00 | 73 | 1015.2 |
| 20260507120050 | 12 | 33 | 6.4 | 9.7 | 0.00 | 0.00 | 0.00 | 75 | 1015.2 |
| 20260507115049 | 11 | 58 | 3.2 | 9.7 | 0.00 | 0.00 | 0.00 | 76 | 1015.3 |
| 20260507114049 | 11 | 16 | 3.2 | 8.0 | 0.00 | 0.00 | 0.00 | 76 | 1015.2 |
| 20260507113047 | 11 | 331 | 4.8 | 8.0 | 0.00 | 0.00 | 0.00 | 76 | 1015.3 |
| 20260507112051 | 11 | 355 | 4.8 | 11.3 | 0.00 | 0.00 | 0.00 | 76 | 1015.2 |
| 20260507110051 | 11 | 274 | 4.8 | 9.7 | 0.00 | 0.00 | 0.00 | 78 | 1015.2 |
| 20260507105050 | 11 | 195 | 3.2 | 6.4 | 0.00 | 0.00 | 0.00 | 78 | 1015.3 |
| 20260507104048 | 11 | 340 | 3.2 | 9.7 | 0.00 | 0.00 | 0.00 | 77 | 1015.3 |
| 20260507103049 | 11 | 294 | 3.2 | 9.7 | 0.00 | 0.00 | 0.00 | 77 | 1015.3 |
| 20260507102048 | 11 | 4 | 4.8 | 8.0 | 0.00 | 0.00 | 0.00 | 77 | 1015.3 |
| 20260507100050 | 11 | 50 | 3.2 | 8.0 | 0.00 | 0.00 | 0.00 | 79 | 1015.3 |
| 20260507094046 | 10 | 358 | 4.8 | 9.7 | 0.00 | 0.03 | 0.00 | 82 | 1015.3 |
| 20260507093047 | 10 | 11 | 6.4 | 11.3 | 0.00 | 0.03 | 0.00 | 81 | 1015.2 |
| 20260507092048 | 10 | 9 | 4.8 | 9.7 | 0.00 | 0.03 | 0.00 | 83 | 1015.2 |
| 20260507090049 | 10 | 231 | 4.8 | 8.0 | 0.00 | 0.05 | 0.00 | 84 | 1015.1 |
| 20260507085047 | 10 | 29 | 4.8 | 11.3 | 0.00 | 0.05 | 0.00 | 83 | 1015.2 |
| 20260507083049 | 10 | 38 | 4.8 | 8.0 | 0.00 | 0.08 | 0.00 | 85 | 1015.0 |
| 20260507081049 | 9 | 46 | 4.8 | 9.7 | 0.00 | 0.10 | 0.00 | 85 | 1014.9 |
| 20260507080044 | 9 | 38 | 4.8 | 9.7 | 0.00 | 0.10 | 0.00 | 86 | 1014.9 |
| 20260507075047 | 8 | 46 | 4.8 | 9.7 | 0.00 | 0.10 | 0.00 | 87 | 1014.9 |
| 20260507074049 | 8 | 31 | 4.8 | 8.0 | 0.00 | 0.13 | 0.00 | 87 | 1014.9 |
| 20260507073049 | 8 | 58 | 4.8 | 8.0 | 0.00 | 0.13 | 0.00 | 87 | 1014.8 |
| 20260507072031 | 8 | 30 | 3.2 | 9.7 | 0.00 | 0.15 | 0.00 | 87 | 1014.7 |
| 20260507071048 | 8 | 2 | 3.2 | 6.4 | 0.00 | 0.18 | 0.00 | 88 | 1014.7 |
| 20260507070047 | 8 | 3 | 1.6 | 6.4 | 0.00 | 0.23 | 0.00 | 88 | 1014.7 |
| 20260507065025 | 8 | 353 | 3.2 | 8.0 | 0.00 | 0.23 | 0.00 | 88 | 1014.7 |
| 20260507064047 | 8 | 26 | 3.2 | 6.4 | 0.00 | 0.25 | 0.00 | 88 | 1014.7 |
| 20260507062047 | 7 | 25 | 4.8 | 6.4 | 0.00 | 0.33 | 0.00 | 91 | 1014.5 |
| 20260507061047 | 7 | 358 | 3.2 | 6.4 | 0.00 | 0.33 | 0.00 | 93 | 1014.5 |
| 20260507060046 | 7 | 13 | 3.2 | 4.8 | 0.00 | 0.36 | 0.00 | 94 | 1014.5 |
| 20260507055040 | 7 | 2 | 3.2 | 4.8 | 0.00 | 0.38 | 0.00 | 94 | 1014.3 |
| 20260507054028 | 7 | 353 | 4.8 | 6.4 | 0.00 | 0.43 | 0.00 | 94 | 1014.2 |
| 20260507053045 | 7 | 347 | 4.8 | 6.4 | 0.00 | 0.43 | 0.00 | 94 | 1014.1 |
| 20260507052046 | 7 | 346 | 1.6 | 4.8 | 0.00 | 0.46 | 0.00 | 95 | 1014.1 |
| 20260507051047 | 7 | 346 | 1.6 | 3.2 | 0.00 | 0.48 | 0.00 | 96 | 1013.9 |
| 20260507050045 | 6 | 346 | 3.2 | 4.8 | 0.00 | 0.51 | 0.00 | 96 | 1013.8 |
| 20260507045048 | 6 | 346 | 3.2 | 4.8 | 0.00 | 0.51 | 0.00 | 96 | 1013.7 |
| 20260507044047 | 6 | 351 | 4.8 | 6.4 | 0.00 | 0.53 | 0.00 | 96 | 1013.6 |
| 20260507043047 | 6 | 3 | 3.2 | 4.8 | 0.00 | 0.56 | 0.00 | 96 | 1013.5 |
| 20260507042048 | 6 | 8 | 3.2 | 4.8 | 0.00 | 0.58 | 0.00 | 95 | 1013.5 |
| 20260507040047 | 6 | 5 | 4.8 | 6.4 | 0.00 | 0.64 | 0.00 | 94 | 1013.3 |
| 20260507035047 | 6 | 18 | 4.8 | 8.0 | 0.00 | 0.66 | 0.00 | 93 | 1013.3 |
| 20260507034047 | 6 | 32 | 4.8 | 8.0 | 0.00 | 0.69 | 0.00 | 94 | 1013.2 |
| 20260507033024 | 6 | 26 | 4.8 | 8.0 | 0.00 | 0.69 | 0.00 | 94 | 1013.2 |
| 20260507032049 | 6 | 29 | 6.4 | 8.0 | 0.00 | 0.71 | 0.00 | 94 | 1013.1 |
| 20260507031046 | 6 | 15 | 4.8 | 8.0 | 0.00 | 0.71 | 0.00 | 95 | 1013.0 |
| 20260507030046 | 6 | 9 | 4.8 | 8.0 | 0.00 | 0.74 | 0.00 | 95 | 1013.0 |
| 20260507024044 | 6 | 14 | 6.4 | 11.3 | 0.00 | 0.76 | 0.00 | 97 | 1013.0 |
| 20260507023041 | 6 | 3 | 4.8 | 9.7 | 0.00 | 0.79 | 0.00 | 97 | 1012.9 |
| 20260507022022 | 6 | 351 | 6.4 | 9.7 | 0.00 | 0.79 | 0.00 | 97 | 1012.8 |
| 20260507021048 | 6 | 351 | 6.4 | 8.0 | 0.00 | 0.79 | 0.00 | 97 | 1012.7 |
| 20260507020047 | 6 | 350 | 4.8 | 8.0 | 0.00 | 0.79 | 0.00 | 97 | 1012.6 |
| 20260507015040 | 6 | 358 | 3.2 | 6.4 | 0.00 | 0.81 | 0.00 | 97 | 1012.6 |
| 20260507013043 | 6 | 348 | 4.8 | 8.0 | 0.00 | 0.86 | 0.00 | 97 | 1012.6 |
| 20260507012043 | 6 | 350 | 4.8 | 8.0 | 0.00 | 0.89 | 0.00 | 97 | 1012.5 |
| 20260507010049 | 6 | 358 | 4.8 | 6.4 | 0.00 | 0.91 | 0.00 | 96 | 1012.5 |
| 20260507003045 | 6 | 337 | 4.8 | 8.0 | 0.00 | 0.99 | 0.00 | 96 | 1012.5 |
| 20260507002046 | 6 | 333 | 4.8 | 8.0 | 0.00 | 1.02 | 0.00 | 96 | 1012.5 |
| 20260507001046 | 6 | 337 | 4.8 | 8.0 | 0.00 | 1.02 | 0.00 | 95 | 1012.4 |
| 20260507000044 | 6 | 333 | 4.8 | 6.4 | 0.00 | 1.04 | 0.00 | 95 | 1012.4 |
| 20260506235052 | 6 | 336 | 4.8 | 6.4 | 0.00 | 1.07 | 0.00 | 95 | 1012.4 |
| 20260506234051 | 6 | 343 | 3.2 | 6.4 | 0.00 | 1.09 | 0.00 | 95 | 1012.3 |
| 20260506233050 | 6 | 335 | 4.8 | 6.4 | 0.00 | 1.12 | 0.00 | 95 | 1012.3 |
| 20260506232052 | 6 | 335 | 3.2 | 4.8 | 0.00 | 1.17 | 0.00 | 95 | 1012.2 |
| 20260506231049 | 6 | 339 | 3.2 | 4.8 | 0.00 | 1.17 | 0.00 | 95 | 1012.2 |
| 20260506230051 | 6 | 343 | 4.8 | 4.8 | 0.00 | 1.19 | 0.00 | 96 | 1012.1 |
| 20260506225050 | 6 | 347 | 3.2 | 4.8 | 0.00 | 1.22 | 0.00 | 96 | 1012.1 |
| 20260506223049 | 6 | 340 | 3.2 | 6.4 | 0.00 | 1.27 | 0.00 | 95 | 1012.0 |
| 20260506221051 | 6 | 7 | 4.8 | 9.7 | 0.00 | 1.32 | 0.00 | 95 | 1011.7 |
| 20260506220059 | 6 | 7 | 4.8 | 9.7 | 0.00 | 1.32 | 0.00 | 94 | 1011.6 |
| 20260506215055 | 6 | 11 | 6.4 | 11.3 | 0.00 | 1.35 | 1.32 | 93 | 1011.6 |
| 20260506214055 | 6 | 5 | 8.0 | 12.9 | 0.00 | 1.37 | 1.32 | 93 | 1011.4 |
| 20260506213052 | 6 | 5 | 6.4 | 9.7 | 0.00 | 1.37 | 1.32 | 92 | 1011.3 |
| 20260506212053 | 6 | 5 | 6.4 | 9.7 | 0.00 | 1.37 | 1.32 | 93 | 1011.2 |
| 20260506211053 | 7 | 3 | 4.8 | 8.0 | 0.00 | 1.40 | 1.32 | 93 | 1011.1 |
| 20260506210053 | 7 | 3 | 4.8 | 8.0 | 0.00 | 1.42 | 1.32 | 93 | 1011.1 |
| 20260506205052 | 7 | 8 | 8.0 | 11.3 | 0.00 | 1.45 | 1.32 | 93 | 1010.9 |
| 20260506204053 | 7 | 8 | 8.0 | 11.3 | 0.00 | 1.45 | 1.32 | 92 | 1010.7 |
| 20260506203054 | 8 | 7 | 6.4 | 11.3 | 0.00 | 1.47 | 1.32 | 91 | 1010.5 |
| 20260506202054 | 8 | 355 | 4.8 | 8.0 | 0.00 | 1.50 | 1.32 | 91 | 1010.5 |
| 20260506201059 | 8 | 355 | 4.8 | 8.0 | 0.00 | 1.55 | 1.32 | 93 | 1010.4 |
| 20260506195052 | 8 | 333 | 3.2 | 3.2 | 0.00 | 1.63 | 1.32 | 94 | 1010.1 |
| 20260506194052 | 8 | 9 | 1.6 | 4.8 | 0.00 | 1.65 | 1.32 | 95 | 1010.1 |
| 20260506193052 | 9 | 18 | 3.2 | 4.8 | 0.00 | 1.70 | 1.32 | 94 | 1009.9 |
| 20260506192052 | 9 | 60 | 1.6 | 3.2 | 0.00 | 1.73 | 1.32 | 93 | 1009.9 |
| 20260506191052 | 9 | 52 | 1.6 | 3.2 | 0.00 | 1.75 | 1.32 | 92 | 1009.9 |
| 20260506190054 | 9 | 52 | 1.6 | 3.2 | 0.00 | 1.78 | 1.32 | 92 | 1009.8 |
| 20260506185051 | 9 | 65 | 1.6 | 4.8 | 0.00 | 1.80 | 1.32 | 91 | 1009.7 |
| 20260506184051 | 9 | 81 | 1.6 | 4.8 | 0.00 | 1.83 | 1.32 | 91 | 1009.7 |
| 20260506182054 | 9 | 335 | 3.2 | 8.0 | 0.00 | 1.91 | 1.32 | 91 | 1009.4 |
| 20260506181050 | 9 | 274 | 4.8 | 6.4 | 0.00 | 1.91 | 1.32 | 92 | 1009.3 |
| 20260506180053 | 10 | 269 | 4.8 | 6.4 | 0.00 | 1.93 | 1.32 | 93 | 1009.2 |
| 20260506175053 | 10 | 269 | 4.8 | 6.4 | 0.00 | 1.93 | 1.32 | 92 | 1009.0 |
| 20260506174050 | 10 | 270 | 4.8 | 8.0 | 0.00 | 1.96 | 1.32 | 92 | 1008.9 |
| 20260506172052 | 10 | 269 | 4.8 | 8.0 | 0.00 | 2.01 | 1.32 | 92 | 1008.7 |
| 20260506171050 | 10 | 280 | 4.8 | 8.0 | 0.00 | 2.01 | 1.32 | 92 | 1008.6 |
| 20260506170047 | 10 | 289 | 4.8 | 8.0 | 0.00 | 2.03 | 1.32 | 92 | 1008.7 |
| 20260506165047 | 10 | 302 | 6.4 | 9.7 | 0.00 | 2.03 | 1.32 | 91 | 1008.6 |
| 20260506164049 | 10 | 300 | 6.4 | 9.7 | 0.00 | 2.03 | 1.32 | 90 | 1008.6 |
| 20260506163049 | 10 | 302 | 8.0 | 11.3 | 0.00 | 2.06 | 1.32 | 90 | 1008.6 |
| 20260506162052 | 10 | 313 | 8.0 | 12.9 | 0.00 | 2.06 | 1.32 | 89 | 1008.6 |
| 20260506161050 | 10 | 305 | 8.0 | 12.9 | 0.00 | 2.06 | 1.32 | 88 | 1008.6 |
| 20260506160048 | 10 | 313 | 6.4 | 11.3 | 0.00 | 2.08 | 1.32 | 88 | 1008.6 |
| 20260506155050 | 10 | 324 | 6.4 | 11.3 | 0.00 | 2.11 | 1.32 | 88 | 1008.6 |
| 20260506154053 | 10 | 340 | 4.8 | 8.0 | 0.00 | 2.11 | 1.32 | 88 | 1008.5 |
| 20260506153049 | 10 | 351 | 4.8 | 8.0 | 0.00 | 2.13 | 1.32 | 88 | 1008.5 |